Weather History for KEYE - October, 2013

Change the Weather History Date:

Thursday, October 3, 2013

  Actual Average Record
Temperature  
Mean Temperature 74 °F 59 °F  
Max Temperature 81 °F 70 °F 82 °F (2002)
Min Temperature 66 °F 49 °F 35 °F (2003)
Degree Days  
Heating Degree Days 0 7  
Month to date heating degree days 0 19  
Since 1 July heating degree days 53 80  
Cooling Degree Days 9 1  
Month to date cooling degree days 16 3  
Year to date cooling degree days 994 1046  
Growing Degree Days 24 (Base 50)    
Moisture  
Dew Point 64 °F    
Average Humidity 74    
Maximum Humidity 93    
Minimum Humidity 54    
Precipitation  
Precipitation T in 0.11 in 0.64 in (1998)
Month to date precipitation T 0.32  
Year to date precipitation 29.80 31.22  
Sea Level Pressure  
Sea Level Pressure 30.01 in    
Wind  
Wind Speed 5 mph (South)    
Max Wind Speed 16 mph    
Max Gust Speed 25 mph    
Visibility 9 miles    
Events Rain    
T = Trace of Precipitation, MM = Missing Value Source: NWS Daily Summary

Daily Weather History Graph

Daily Weather History Graph

Search for Another Location

Airport or City:

Trip Planner

Search our weather history database for the weather conditions in past years. The results will help you decide how hot, cold, wet, or windy it might be!

Date:

Astronomy

Oct. 03, 2013 Rise Set
Actual Time 7:43 AM EDT 7:23 PM EDT
Civil Twilight 7:16 AM EDT 7:50 PM EDT
Nautical Twilight 6:45 AM EDT 8:22 PM EDT
Astronomical Twilight 6:13 AM EDT 8:53 PM EDT
Moon 6:16 AM EDT (10/3) 6:32 PM EDT (10/3)
Length of Visible Light 12h 34m
Length of Day
11h 40m
Waning Crescent, 2% of the Moon is Illuminated
Oct 3
Waning Crescent
Oct 4
New
Oct 11
First Quarter
Oct 18
Full
Oct 26
Last Quarter

Hourly Weather History & Observations

Time (EDT) Temp. Heat Index Dew Point Humidity Pressure Visibility Wind Dir Wind Speed Gust Speed Precip Events Conditions
12:01 AM 68.0 °F - 64.4 °F 88% 30.05 in 7.0 mi Calm Calm - N/A   Scattered Clouds
12:53 AM 68.0 °F - 66.0 °F 93% 30.02 in 7.0 mi South 4.6 mph - 0.00 in Rain Light Rain
1:15 AM 69.8 °F - 66.2 °F 88% 30.03 in 7.0 mi South 4.6 mph - 0.00 in   Mostly Cloudy
1:22 AM 68.0 °F - 66.2 °F 94% 30.03 in 6.0 mi South 4.6 mph - 0.00 in   Scattered Clouds
1:53 AM 68.0 °F - 66.0 °F 93% 30.01 in 6.0 mi South 3.5 mph - 0.00 in   Clear
2:53 AM 68.0 °F - 64.9 °F 90% 30.01 in 6.0 mi SW 3.5 mph - N/A   Partly Cloudy
3:53 AM 66.9 °F - 64.9 °F 93% 30.01 in 8.0 mi Calm Calm - N/A   Partly Cloudy
4:53 AM 66.9 °F - 64.0 °F 90% 30.01 in 10.0 mi Calm Calm - N/A   Clear
5:53 AM 66.9 °F - 64.0 °F 90% 30.02 in 10.0 mi SSW 4.6 mph - N/A   Overcast
6:53 AM 66.9 °F - 64.0 °F 90% 30.03 in 9.0 mi South 3.5 mph - 0.00 in   Overcast
7:53 AM 66.0 °F - 64.9 °F 96% 30.03 in 6.0 mi South 3.5 mph - N/A   Mostly Cloudy
8:53 AM 66.9 °F - 64.9 °F 93% 30.04 in 4.0 mi South 3.5 mph - 0.00 in   Overcast
9:53 AM 69.1 °F - 66.0 °F 90% 30.05 in 8.0 mi SSW 5.8 mph - N/A   Mostly Cloudy
10:53 AM 73.0 °F - 64.9 °F 76% 30.04 in 10.0 mi SSW 5.8 mph - N/A   Mostly Cloudy
11:53 AM 75.0 °F - 64.9 °F 71% 30.04 in 10.0 mi SSW 8.1 mph - N/A   Mostly Cloudy
12:53 PM 75.9 °F - 64.0 °F 67% 30.02 in 10.0 mi SW 10.4 mph 18.4 mph N/A   Mostly Cloudy
1:53 PM 77.0 °F - 63.0 °F 62% 30.01 in 10.0 mi SSW 8.1 mph - N/A   Partly Cloudy
2:53 PM 79.0 °F - 63.0 °F 58% 29.98 in 10.0 mi Variable 4.6 mph - N/A   Mostly Cloudy
3:53 PM 81.0 °F 82.2 °F 63.0 °F 54% 29.96 in 10.0 mi South 6.9 mph 18.4 mph N/A   Mostly Cloudy
4:53 PM 80.1 °F 81.2 °F 62.1 °F 54% 29.95 in 10.0 mi SSW 9.2 mph - N/A   Scattered Clouds
5:53 PM 79.0 °F - 62.1 °F 56% 29.96 in 10.0 mi South 8.1 mph - N/A   Scattered Clouds
6:53 PM 77.0 °F - 63.0 °F 62% 29.95 in 10.0 mi South 6.9 mph - N/A   Clear
7:53 PM 73.9 °F - 64.0 °F 71% 29.96 in 10.0 mi SSE 4.6 mph - N/A   Clear
8:53 PM 73.0 °F - 64.9 °F 76% 29.98 in 10.0 mi SSE 3.5 mph - N/A   Clear
9:53 PM 72.0 °F - 64.9 °F 78% 29.99 in 10.0 mi South 3.5 mph - N/A   Clear
10:53 PM 72.0 °F - 64.9 °F 78% 29.99 in 10.0 mi South 5.8 mph - N/A   Partly Cloudy